Volver al catálogo

THORAD AGENA D DEB

ActivoSSO
NORAD 6139·DEBRIS·🇺🇸 United States

Lanzado Apr 8, 1970 desde Vandenberg Space Force Base

Loading…

Próximos Pases (próximas 24 horas)

TLE

ActualizadoSource: Space-Track

Época: Sep 14, 2026, 14:07 UTC

1 06139U 70025MV  26257.58878134  .00001483  00000-0  97229-3 0  9997
2 06139  98.9043 130.3745 0069714  86.8776 274.0364 14.02385036841546

Sigue THORAD AGENA D DEB en tiempo real con AllMySat

Download on the App Store